Find Fuji-OSCAR-20

NORAD ID: 20480 Int'l Des: 1990-013 Owner: JARL Country: J operational
LEORETROGRADE

Live Position

Loading 3D Globe...

About Fuji-OSCAR-20

Description loading...

Upcoming Passes

Passes for default location (London). Set your location on the main map for personalized predictions.

Altitude History

Loading altitude history...

Two-Line Element Set

1 20480U 90013C 26105.26016457 -.00000067 00000-0 -67586-4 0 9993
2 20480 99.0704 39.8419 0539141 287.1464 67.1299 12.83488904695263
Epoch: Apr 15, 2026 • Age: 7 hours

Current Status

Altitude 1265.6 km
Velocity 7.25 km/s
Sub-Earth Point -23.12°S, 177.87°E
Launch Date Feb 7, 1990
Age 36.1 years
Type other

Technical Details

Classification Payload
Mass 50.00 kg
Dry Mass 50.00 kg
Total Mass 50.00 kg
Length 0.50 m
Diameter 0.40 m
Span 0.50 m
Shape Poly
Manufacturer JARL
Bus Type JAS
Phase Status In Orbit
Owner/State JARL/J

Most Searched